Flag for Germany Weather past 2 weeks in Wesseling, North Rhine-Westphalia, Germany

Now
59 °F

Sprinkles. Overcast.


Feels Like: 59 °F
Forecast: 52 / 75 °F
Wind: 2 mph from East

Location: Koeln / Bonn


UV Index: 3 (Moderate)

Visibility: 14 mi


Pressure: 29.98 "Hg

Humidity: 91%

Dew point: 56 °F

Location of WesselingLocation

Historic Weather in Wesseling

°F

Wesseling temperature yesterday

Maximum temperature yesterday: 70 °F (at 3:00 PM)
Minimum temperature yesterday: 45 °F (at 3:00 AM)
Average temperature yesterday: 57 °F

Past Weeks' High & Low Weather Summary

 TemperatureHumidityPressure
High73 °F (Apr 24, 4:00 PM)98% (Apr 12, 7:00 AM)30.45 "Hg (Apr 12, 7:00 AM)
Low29 °F (Apr 16, 7:00 AM)27% (Apr 17, 6:00 PM)29.60 "Hg (Apr 21, 4:00 PM)
Average52 °F68%30.03 "Hg
* Reported Apr 9 6:00 PM — Apr 24 6:00 PM, Wesseling, Weather by CustomWeather, © 2014

Note: Actual official high and low records may vary slightly from our data, if they occured in-between our weather recording intervals... More about our weather records

Advertising

Historic Weather Conditions — Data for Previous 24 hours

 ConditionsComfort  
Time TempWeatherWind HumidityBarometerVisibility
6:00 PM
Apr 24
63 °FLight rain. Overcast.6 mph68%30.02 "Hg16 mi
5:00 PM64 °FThundershowers. Overcast.5 mph62%29.99 "Hg14 mi
4:00 PM73 °FThunderstorms. Scattered clouds.3 mph38%30.00 "Hg19 mi
3:00 PM71 °FScattered clouds.2 mph45%30.02 "Hg22 mi
2:00 PM70 °FPartly sunny.1 mph46%30.04 "Hg22 mi
1:00 PM64 °FOvercast.1 mph66%30.07 "Hg22 mi
12:00 PM61 °FOvercast.1 mph71%30.09 "Hg25 mi
11:00 AM59 °FLight rain. Overcast.1 mph74%30.10 "Hg25 mi
10:00 AM58 °FOvercast.2 mph73%30.10 "Hg25 mi
9:00 AM56 °FOvercast.2 mph75%30.11 "Hg22 mi
8:00 AM53 °FOvercast.1 mph79%30.09 "Hg25 mi
7:00 AM46 °FPartly sunny.1 mph93%30.10 "Hg22 mi
6:00 AM46 °FPassing clouds.2 mph92%30.09 "Hg25 mi
5:00 AM50 °FPassing clouds.2 mph80%30.09 "Hg28 mi
4:00 AM49 °FPassing clouds.3 mph87%30.10 "Hg28 mi
3:00 AM49 °FPassing clouds.2 mph88%30.11 "Hg28 mi
2:00 AM46 °FPassing clouds.1 mph91%30.11 "Hg31 mi
1:00 AM50 °FPassing clouds.1 mph89%30.12 "Hg31 mi
12:00 AM49 °FPassing clouds.2 mph91%30.11 "Hg31 mi
11:00 PM
Apr 23
52 °FPassing clouds.2 mph79%30.11 "Hg31 mi
10:00 PM53 °FPassing clouds.1 mph79%30.10 "Hg31 mi
9:00 PM59 °FPassing clouds.1 mph67%30.08 "Hg25 mi
8:00 PM62 °FPartly sunny.1 mph57%30.06 "Hg25 mi
7:00 PM65 °FScattered clouds.3 mph48%30.06 "Hg19 mi
Weather by CustomWeather, © 2014

See weather overview